Theta_e
349 330 319 343 340 338 336 335 337 337 336 337 338 338 337 336 337 338 331 329 332 321 324 330 330 324 318 322 331 333 332 332 330 328 337 339 338 338 339 338 338 333 333
347 328 320 342 340 335 334 329 334 338 336 338 339 338 336 335 338 333 324 327 328 319 319 323 332 326 318 322 334 334 335 336 333 324 327 336 339 338 339 340 338 337 334
344 327 323 340 335 333 333 326 327 334 335 329 333 331 328 325 325 321 319 320 317 313 318 322 332 329 322 322 329 333 333 334 334 330 318 320 334 339 337 339 340 338 336
335 323 336 339 337 325 324 319 317 319 322 321 326 322 317 312 314 314 312 310 311 315 318 326 331 330 326 326 332 333 334 330 330 331 324 333 325 328 336 338 338 340 338
329 325 330 328 324 320 316 314 312 314 312 311 312 311 311 312 311 311 314 316 317 317 318 328 329 328 327 328 330 332 334 332 326 324 325 330 335 326 319 332 337 338 338
337 327 326 325 321 314 312 310 310 310 311 311 312 312 313 316 324 332 324 327 329 328 325 328 329 328 327 328 334 334 333 332 331 323 317 320 327 337 334 317 320 334 337
337 332 327 323 316 311 311 313 315 315 317 320 322 334 335 331 331 330 331 331 330 329 327 326 325 325 325 328 333 333 331 330 329 324 325 322 320 324 334 335 325 319 333
339 341 330 322 313 313 315 318 321 323 334 338 337 337 333 331 331 331 331 330 328 326 325 324 324 325 326 327 332 331 331 329 322 315 315 319 320 321 320 332 335 327 324
341 338 329 315 314 316 320 328 335 337 337 338 339 336 332 329 330 330 329 327 324 324 323 323 323 321 319 320 323 324 320 314 312 311 311 311 312 312 315 320 321 335 330
339 329 320 315 316 320 331 335 336 335 335 334 334 329 325 325 324 325 325 323 322 322 321 319 315 310 310 310 310 310 309 308 306 305 306 307 307 309 309 310 316 321 332
336 321 316 316 319 329 333 335 333 333 328 325 322 321 320 320 319 319 319 318 316 312 309 308 308 307 306 307 306 306 306 306 305 304 304 304 305 306 307 308 308 309 320
336 328 318 319 326 332 333 333 331 328 325 320 325 324 321 319 314 315 310 307 306 307 307 307 307 308 308 308 308 308 307 306 306 306 305 305 305 304 305 306 306 308 308
335 334 330 328 332 331 331 331 330 330 325 323 328 326 325 324 316 308 306 307 307 307 307 308 308 309 309 309 309 309 309 308 308 307 307 306 305 308 306 309 305 306 306
334 335 336 336 337 333 334 332 332 331 330 322 324 324 325 320 312 306 307 308 308 308 308 308 308 309 309 309 309 309 309 309 309 309 308 307 306 305 309 311 311 305 305
335 336 336 337 337 336 335 334 333 332 328 321 321 322 321 312 309 308 308 309 309 309 309 309 309 309 309 309 309 309 309 309 309 309 309 308 306 305 305 304 304 304 304
336 336 336 338 337 338 335 335 333 331 327 322 319 316 312 309 310 309 308 309 309 309 309 309 309 309 310 310 310 309 309 309 309 309 309 308 307 306 306 305 305 304 304
337 336 336 338 337 339 338 336 334 334 331 325 318 313 311 309 310 309 309 308 309 309 309 309 309 309 310 310 310 309 309 309 309 309 309 308 307 306 306 305 305 305 304
338 336 336 336 338 339 338 335 334 334 332 327 320 314 311 309 309 309 309 309 309 308 308 308 308 309 309 309 309 309 309 309 310 310 310 308 307 306 306 306 306 305 304
337 337 337 337 338 336 337 336 335 335 331 326 323 321 311 309 309 309 309 309 308 308 307 308 307 308 308 309 309 309 309 310 311 310 310 309 308 306 307 307 306 305 305
337 337 338 337 337 338 338 336 336 335 331 329 326 323 313 309 308 309 309 309 308 307 307 307 307 308 309 309 309 309 309 310 311 310 310 309 308 307 307 307 306 306 305
337 337 337 337 335 337 336 336 336 335 333 331 326 323 314 310 307 308 308 308 308 307 307 307 308 309 309 309 309 309 309 310 310 310 309 308 307 307 306 306 306 305 304
337 334 336 338 336 337 337 334 334 333 331 329 326 322 316 310 307 307 308 309 308 308 308 307 307 308 309 309 309 310 309 309 308 309 307 307 307 306 306 305 305 304 304
334 337 339 338 337 336 335 334 334 329 329 329 325 321 318 311 307 307 308 308 308 308 307 307 308 309 309 309 309 309 309 308 309 308 308 307 307 306 306 305 304 303 303
337 338 339 334 330 336 332 333 334 331 330 330 328 321 317 311 308 307 307 308 308 308 309 310 310 310 309 309 309 308 309 309 309 308 307 307 306 306 304 304 303 303 302
335 335 334 334 339 333 334 334 333 332 331 328 322 318 313 309 308 308 308 308 308 309 310 310 310 310 310 309 309 308 308 308 308 308 307 307 306 306 304 304 303 303 302
337 339 339 338 335 334 332 333 331 329 327 322 318 314 310 309 308 308 308 309 309 310 310 310 309 309 309 309 309 308 308 307 307 306 305 304 303 303 302 301 300 298 298
Wind_Speed
18 16 17 17 16 14 13 13 13 12 12 12 13 13 12 11 11 11 10 11 11 12 13 16 15 19 23 24 27 26 24 23 22 19 20 25 25 24 22 21 20 21 21
23 20 19 19 16 14 13 12 14 13 13 13 13 12 12 10 9 8 9 9 9 10 13 15 13 17 21 23 23 23 23 20 19 18 19 21 25 24 24 21 20 20 19
20 24 20 19 16 15 13 11 12 11 9 8 8 7 6 5 3 4 6 7 8 11 13 15 13 17 20 21 21 19 18 16 14 16 18 21 21 24 23 22 20 19 20
23 26 23 21 17 14 12 10 10 10 9 9 7 5 4 5 6 7 9 10 11 12 14 15 13 16 18 21 22 19 16 16 10 13 18 25 21 19 21 22 21 19 18
24 25 24 20 15 13 11 10 11 10 10 9 8 8 8 9 9 11 12 13 14 14 14 14 12 14 17 20 19 16 15 17 17 14 18 23 25 21 19 18 21 20 18
17 23 21 18 15 13 13 13 13 12 11 11 11 10 11 13 14 13 14 14 13 13 13 12 11 13 14 18 18 17 12 12 14 16 18 20 21 23 21 19 16 18 19
17 18 18 16 16 16 16 15 14 13 13 13 14 16 14 12 12 11 11 11 11 10 10 10 10 12 13 17 17 15 11 9 11 13 15 18 19 17 19 21 19 16 17
19 18 16 17 17 17 17 16 15 15 14 15 17 16 9 8 8 8 9 8 8 9 10 10 11 12 13 13 13 10 8 7 9 13 13 14 15 15 15 16 20 18 16
18 15 19 19 19 18 18 18 17 15 14 13 14 10 5 6 7 7 7 8 9 9 10 10 10 11 11 10 9 5 2 6 10 12 11 13 13 13 13 13 13 18 17
15 19 22 21 21 20 20 19 16 14 15 15 11 5 5 5 6 7 8 8 9 10 10 10 10 12 11 10 10 7 7 10 11 11 11 13 12 13 12 12 11 11 14
14 20 23 23 23 23 21 18 16 14 12 10 9 7 6 7 9 8 8 9 10 10 12 12 12 13 14 11 12 10 13 14 15 14 13 14 13 12 12 12 12 11 9
20 20 23 24 25 22 20 18 16 13 10 11 12 9 10 10 9 7 10 12 14 14 13 13 14 16 15 14 13 13 17 16 18 17 18 17 16 14 13 12 11 10 10
23 20 19 24 22 19 18 16 16 15 14 15 11 7 4 1 3 8 12 14 14 14 15 15 15 14 12 13 13 13 15 15 17 17 18 17 16 16 15 13 13 11 10
28 24 21 19 20 20 15 17 16 14 11 16 11 10 7 5 5 10 12 13 12 12 13 14 13 12 10 10 11 11 12 13 14 16 16 16 16 15 15 14 14 14 13
32 28 25 24 22 19 19 20 16 14 12 15 13 12 11 5 5 10 12 12 12 11 10 10 10 10 10 9 9 9 9 10 12 13 13 14 13 13 13 13 13 13 13
32 29 29 31 24 22 24 23 19 18 14 14 15 13 9 9 7 8 12 12 11 9 9 8 8 8 8 7 8 9 10 11 11 11 11 10 9 10 11 11 12 11 11
34 30 32 32 24 27 26 22 20 15 13 12 11 10 10 10 10 10 10 13 11 10 9 7 5 5 6 4 4 7 8 10 13 13 12 9 8 7 9 10 11 11 11
39 35 34 30 27 29 24 23 19 17 14 12 12 10 10 10 11 12 11 13 14 11 9 7 5 2 1 2 0 3 7 10 13 14 13 12 10 8 8 12 13 13 12
40 37 36 31 30 30 30 24 21 21 16 14 11 9 14 14 14 13 13 13 12 11 9 6 4 3 4 3 4 4 5 6 11 14 13 12 14 11 10 15 16 15 18
40 36 37 33 26 29 28 27 26 23 20 14 12 13 14 14 15 16 15 15 13 11 9 6 5 5 4 5 5 5 6 7 9 13 12 13 12 11 17 20 19 20 21
41 40 37 36 34 37 32 29 28 25 18 18 16 15 12 13 15 16 16 14 12 11 9 8 7 6 6 8 9 11 10 6 11 11 10 6 10 11 13 20 20 22 24
45 35 37 39 35 35 35 30 28 20 19 17 18 16 13 12 15 16 15 13 11 10 10 10 9 10 9 9 10 11 5 12 6 4 5 6 6 9 12 12 16 19 21
40 38 42 40 33 31 26 28 25 19 20 23 22 20 15 12 14 16 15 13 12 12 11 12 12 11 10 9 10 9 5 3 6 9 13 17 11 13 15 20 19 13 17
41 39 46 35 36 33 25 28 25 19 27 27 23 21 16 14 14 15 15 14 13 12 11 10 11 12 14 14 13 13 12 14 12 13 17 22 25 23 21 18 17 17 18
38 37 42 32 31 26 25 25 17 22 22 25 22 20 18 17 15 14 14 14 13 13 13 14 15 16 16 17 18 18 18 17 18 20 22 20 22 24 22 20 24 25 25
31 31 31 31 25 21 21 22 14 26 26 22 22 20 18 18 18 16 14 15 16 17 18 19 20 19 19 19 20 19 19 20 22 23 26 26 25 24 26 28 29 29 26
Wind_Direction
184 175 162 150 147 141 135 135 126 122 121 113 112 108 105 98 91 89 73 75 74 64 75 76 61 65 69 77 77 71 64 64 61 65 65 68 64 65 67 67 70 71 73
170 172 164 155 157 148 144 136 138 131 118 115 114 113 105 101 93 69 61 70 70 68 79 80 72 69 73 80 83 76 70 55 58 60 72 70 69 65 65 69 69 70 72
179 169 162 158 160 155 151 144 147 150 141 137 139 135 115 109 103 60 67 73 73 78 82 84 82 75 74 78 86 83 74 71 55 49 66 68 69 68 66 64 69 71 71
169 165 157 161 159 153 152 149 149 151 153 155 160 149 125 104 96 87 85 85 84 85 89 89 88 81 76 82 81 73 68 56 57 52 66 66 58 68 69 67 65 65 72
168 166 161 164 163 157 156 151 146 145 143 141 134 123 111 102 98 95 93 92 91 90 93 93 87 82 81 86 90 75 65 53 57 70 67 75 67 57 64 66 67 65 67
158 167 165 164 161 155 148 142 137 133 129 125 120 119 113 105 96 103 96 94 90 86 88 90 90 86 88 93 88 80 70 60 52 61 70 69 73 72 62 62 66 68 69
149 155 165 161 156 149 144 139 135 130 125 123 117 112 113 99 111 98 98 95 88 83 82 85 81 89 93 103 91 95 69 61 53 61 63 70 66 72 74 66 60 67 69
164 169 169 162 153 147 142 138 133 130 125 126 131 135 110 101 108 106 102 96 89 86 86 86 86 90 95 106 110 102 79 39 52 51 55 65 65 66 71 73 67 62 67
169 180 172 160 152 148 142 136 128 128 133 142 145 143 114 115 114 109 102 97 95 94 94 92 89 89 91 101 114 125 89 62 59 60 56 59 59 62 66 70 76 69 67
178 174 168 159 153 148 143 137 135 130 129 133 141 143 129 124 110 109 107 104 104 104 102 99 97 95 93 97 94 97 69 55 55 58 58 60 56 53 57 61 70 81 81
169 170 164 159 153 150 146 142 140 141 136 134 130 124 130 113 108 104 108 109 109 109 110 110 105 96 92 88 85 80 70 66 60 61 64 61 58 57 55 57 57 61 61
166 158 162 159 155 154 152 148 144 142 135 130 130 141 117 96 88 103 113 115 112 112 112 107 99 92 87 86 82 73 71 67 64 61 61 60 59 57 57 53 54 56 62
169 156 155 157 152 153 152 147 145 138 124 130 139 134 103 68 63 122 126 122 118 114 110 109 105 99 91 83 77 71 71 65 62 59 58 56 55 56 56 53 48 48 49
176 166 161 158 159 162 146 152 146 154 135 139 156 156 190 232 158 138 138 132 125 115 115 116 112 103 92 83 80 73 67 63 57 53 51 49 51 51 57 52 47 43 44
180 172 172 164 173 159 159 154 157 163 163 162 168 184 220 201 156 144 147 137 129 127 124 115 106 98 83 71 61 57 52 52 51 46 43 43 45 50 49 45 42 36 34
181 174 179 175 177 172 167 163 170 183 187 179 186 196 192 185 173 159 160 151 149 141 129 122 113 102 91 65 45 33 22 17 24 26 29 31 35 39 38 34 33 34 29
177 172 179 176 181 179 171 178 181 196 205 178 185 186 181 182 186 180 166 163 158 157 151 140 130 118 117 99 39 17 10 2 360 0 360 6 16 19 21 20 14 8 4
175 177 175 182 187 174 183 183 196 212 204 187 180 178 188 187 192 181 177 176 173 171 179 183 173 169 143 134 10 5 346 342 346 347 345 349 2 342 351 2 357 351 351
179 177 176 184 196 197 197 199 203 205 195 192 189 204 191 193 187 192 187 191 188 190 199 204 197 214 266 303 301 315 307 305 320 328 338 345 342 330 341 339 347 345 341
181 181 181 187 199 208 208 210 211 208 190 209 223 217 195 196 198 196 200 203 203 202 208 220 235 240 249 288 309 315 317 306 291 306 311 326 330 323 329 331 333 329 333
183 186 183 194 202 213 215 210 209 211 213 210 218 216 201 206 203 204 204 204 208 210 220 223 231 247 277 296 306 312 317 306 278 265 273 318 342 318 313 320 324 323 324
180 194 197 198 209 211 220 218 212 198 211 213 212 213 210 210 207 207 209 216 220 225 231 238 244 257 269 276 286 305 323 310 305 225 239 277 291 273 291 303 308 310 315
188 192 192 200 208 218 214 223 203 201 205 202 208 211 215 211 205 211 214 221 227 230 236 244 250 258 269 269 271 279 289 259 261 247 259 273 276 269 276 295 303 302 295
190 193 196 221 209 213 216 217 216 211 208 208 210 207 211 214 210 208 213 217 226 238 245 256 264 268 277 282 280 278 267 266 273 280 276 279 285 286 285 273 280 285 291
202 205 217 210 202 212 209 210 212 207 224 211 201 203 205 208 211 211 215 224 226 231 240 246 259 267 268 274 279 282 279 269 261 264 278 278 274 279 276 273 278 282 283
201 199 202 204 211 211 214 199 215 252 211 202 197 200 199 204 207 210 210 216 224 234 241 248 255 260 262 264 266 266 265 265 269 273 281 284 285 284 283 286 288 288 287